#datetime,building,power
2024-04-05T00:00:00,axn,27.85
2024-04-05T00:01:00,axn,27.54
2024-04-05T00:02:00,axn,27.45
2024-04-05T00:03:00,axn,27.48
2024-04-05T00:04:00,axn,27.52
2024-04-05T00:05:00,axn,28.30
2024-04-05T00:06:00,axn,27.54
2024-04-05T00:07:00,axn,28.14
2024-04-05T00:08:00,axn,28.15
2024-04-05T00:09:00,axn,28.22
2024-04-05T00:10:00,axn,27.98
2024-04-05T00:11:00,axn,28.19
2024-04-05T00:12:00,axn,27.66
2024-04-05T00:13:00,axn,27.93
2024-04-05T00:14:00,axn,27.95
2024-04-05T00:15:00,axn,28.22
2024-04-05T00:16:00,axn,28.00
2024-04-05T00:17:00,axn,27.40
2024-04-05T00:18:00,axn,27.75
2024-04-05T00:19:00,axn,27.24
2024-04-05T00:20:00,axn,27.39
2024-04-05T00:21:00,axn,27.33
2024-04-05T00:22:00,axn,27.32
2024-04-05T00:23:00,axn,27.02
2024-04-05T00:24:00,axn,27.66
2024-04-05T00:25:00,axn,27.07
2024-04-05T00:26:00,axn,27.20
2024-04-05T00:27:00,axn,27.50
2024-04-05T00:28:00,axn,27.34
2024-04-05T00:29:00,axn,27.02
2024-04-05T00:30:00,axn,27.27
2024-04-05T00:31:00,axn,27.15
2024-04-05T00:32:00,axn,27.11
2024-04-05T00:33:00,axn,27.01
2024-04-05T00:34:00,axn,27.47
2024-04-05T00:35:00,axn,27.56
2024-04-05T00:36:00,axn,27.89
2024-04-05T00:37:00,axn,27.61
2024-04-05T00:38:00,axn,27.90
2024-04-05T00:39:00,axn,27.39
2024-04-05T00:40:00,axn,27.60
2024-04-05T00:41:00,axn,27.68
2024-04-05T00:42:00,axn,27.83
2024-04-05T00:43:00,axn,28.26
2024-04-05T00:44:00,axn,28.06
2024-04-05T00:45:00,axn,27.64
2024-04-05T00:46:00,axn,28.13
2024-04-05T00:47:00,axn,27.63
2024-04-05T00:48:00,axn,27.61
2024-04-05T00:49:00,axn,26.95
2024-04-05T00:50:00,axn,26.88
2024-04-05T00:51:00,axn,26.85
2024-04-05T00:52:00,axn,29.86
2024-04-05T00:53:00,axn,26.26
2024-04-05T00:54:00,axn,26.24
2024-04-05T00:55:00,axn,26.18
2024-04-05T00:56:00,axn,26.35
2024-04-05T00:57:00,axn,26.30
2024-04-05T00:58:00,axn,26.26
2024-04-05T00:59:00,axn,26.34
2024-04-05T01:00:00,axn,26.28
2024-04-05T01:01:00,axn,26.09
2024-04-05T01:02:00,axn,26.16
2024-04-05T01:03:00,axn,26.27
2024-04-05T01:04:00,axn,26.49
2024-04-05T01:05:00,axn,26.41
2024-04-05T01:06:00,axn,26.87
2024-04-05T01:07:00,axn,27.18
2024-04-05T01:08:00,axn,26.37
2024-04-05T01:09:00,axn,26.44
2024-04-05T01:10:00,axn,26.43
2024-04-05T01:11:00,axn,26.71
2024-04-05T01:12:00,axn,26.33
2024-04-05T01:13:00,axn,26.51
2024-04-05T01:14:00,axn,26.00
2024-04-05T01:15:00,axn,26.13
2024-04-05T01:16:00,axn,26.21
2024-04-05T01:17:00,axn,26.18
2024-04-05T01:18:00,axn,26.35
2024-04-05T01:19:00,axn,26.34
2024-04-05T01:20:00,axn,26.25
2024-04-05T01:21:00,axn,41.12
2024-04-05T01:22:00,axn,41.04
2024-04-05T01:23:00,axn,41.06
2024-04-05T01:24:00,axn,41.29
2024-04-05T01:25:00,axn,40.84
2024-04-05T01:26:00,axn,41.08
2024-04-05T01:27:00,axn,40.59
2024-04-05T01:28:00,axn,26.85
2024-04-05T01:29:00,axn,26.69
2024-04-05T01:30:00,axn,26.39
2024-04-05T01:31:00,axn,26.57
2024-04-05T01:32:00,axn,26.66
2024-04-05T01:33:00,axn,26.61
2024-04-05T01:34:00,axn,26.69
2024-04-05T01:35:00,axn,26.63
2024-04-05T01:36:00,axn,26.56
2024-04-05T01:37:00,axn,26.60
2024-04-05T01:38:00,axn,26.72
2024-04-05T01:39:00,axn,26.28
2024-04-05T01:40:00,axn,26.39
2024-04-05T01:41:00,axn,26.58
2024-04-05T01:42:00,axn,26.50
2024-04-05T01:43:00,axn,26.24
2024-04-05T01:44:00,axn,26.45
2024-04-05T01:45:00,axn,26.46
2024-04-05T01:46:00,axn,26.55
2024-04-05T01:47:00,axn,26.92
2024-04-05T01:48:00,axn,26.88
2024-04-05T01:49:00,axn,26.62
2024-04-05T01:50:00,axn,26.73
2024-04-05T01:51:00,axn,27.21
2024-04-05T01:52:00,axn,26.81
2024-04-05T01:53:00,axn,27.17
2024-04-05T01:54:00,axn,26.72
2024-04-05T01:55:00,axn,26.14
2024-04-05T01:56:00,axn,26.30
2024-04-05T01:57:00,axn,26.74
2024-04-05T01:58:00,axn,26.41
2024-04-05T01:59:00,axn,26.43
2024-04-05T02:00:00,axn,26.45
2024-04-05T02:01:00,axn,26.82
2024-04-05T02:02:00,axn,26.87
2024-04-05T02:03:00,axn,26.76
2024-04-05T02:04:00,axn,26.77
2024-04-05T02:05:00,axn,27.12
2024-04-05T02:06:00,axn,26.82
2024-04-05T02:07:00,axn,26.68
2024-04-05T02:08:00,axn,27.43
2024-04-05T02:09:00,axn,26.95
2024-04-05T02:10:00,axn,26.71
2024-04-05T02:11:00,axn,26.92
2024-04-05T02:12:00,axn,26.97
2024-04-05T02:13:00,axn,26.66
2024-04-05T02:14:00,axn,26.66
2024-04-05T02:15:00,axn,31.80
2024-04-05T02:16:00,axn,26.92
2024-04-05T02:17:00,axn,27.00
2024-04-05T02:18:00,axn,26.50
2024-04-05T02:19:00,axn,26.58
2024-04-05T02:20:00,axn,26.58
2024-04-05T02:21:00,axn,26.48
2024-04-05T02:22:00,axn,26.57
2024-04-05T02:23:00,axn,26.47
2024-04-05T02:24:00,axn,26.43
2024-04-05T02:25:00,axn,26.38
2024-04-05T02:26:00,axn,26.69
2024-04-05T02:27:00,axn,26.74
2024-04-05T02:28:00,axn,27.04
2024-04-05T02:29:00,axn,26.31
2024-04-05T02:30:00,axn,26.50
2024-04-05T02:31:00,axn,26.49
2024-04-05T02:32:00,axn,26.98
2024-04-05T02:33:00,axn,26.48
2024-04-05T02:34:00,axn,26.47
2024-04-05T02:35:00,axn,26.26
2024-04-05T02:36:00,axn,26.27
2024-04-05T02:37:00,axn,26.40
2024-04-05T02:38:00,axn,26.15
2024-04-05T02:39:00,axn,26.14
2024-04-05T02:40:00,axn,26.17
2024-04-05T02:41:00,axn,26.02
2024-04-05T02:42:00,axn,26.03
2024-04-05T02:43:00,axn,25.98
2024-04-05T02:44:00,axn,25.97
2024-04-05T02:45:00,axn,25.95
2024-04-05T02:46:00,axn,26.00
2024-04-05T02:47:00,axn,26.05
2024-04-05T02:48:00,axn,26.08
2024-04-05T02:49:00,axn,26.41
2024-04-05T02:50:00,axn,26.67
2024-04-05T02:51:00,axn,26.25
2024-04-05T02:52:00,axn,26.41
2024-04-05T02:53:00,axn,26.54
2024-04-05T02:54:00,axn,26.06
2024-04-05T02:55:00,axn,26.61
2024-04-05T02:56:00,axn,26.91
2024-04-05T02:57:00,axn,26.14
2024-04-05T02:58:00,axn,26.19
2024-04-05T02:59:00,axn,25.94
2024-04-05T03:00:00,axn,25.93
2024-04-05T03:01:00,axn,25.95
2024-04-05T03:02:00,axn,26.38
2024-04-05T03:03:00,axn,26.13
2024-04-05T03:04:00,axn,26.02
2024-04-05T03:05:00,axn,26.08
2024-04-05T03:06:00,axn,26.11
2024-04-05T03:07:00,axn,26.00
2024-04-05T03:08:00,axn,26.80
2024-04-05T03:09:00,axn,32.26
2024-04-05T03:10:00,axn,32.58
2024-04-05T03:11:00,axn,32.35
2024-04-05T03:12:00,axn,25.87
2024-04-05T03:13:00,axn,25.94
2024-04-05T03:14:00,axn,26.10
2024-04-05T03:15:00,axn,26.02
2024-04-05T03:16:00,axn,26.17
2024-04-05T03:17:00,axn,26.15
2024-04-05T03:18:00,axn,26.11
2024-04-05T03:19:00,axn,26.07
2024-04-05T03:20:00,axn,26.76
2024-04-05T03:21:00,axn,25.93
2024-04-05T03:22:00,axn,26.19
2024-04-05T03:23:00,axn,26.32
2024-04-05T03:24:00,axn,26.33
2024-04-05T03:25:00,axn,26.24
2024-04-05T03:26:00,axn,26.23
2024-04-05T03:27:00,axn,26.14
2024-04-05T03:28:00,axn,26.18
2024-04-05T03:29:00,axn,26.28
2024-04-05T03:30:00,axn,26.17
2024-04-05T03:31:00,axn,26.27
2024-04-05T03:32:00,axn,26.59
2024-04-05T03:33:00,axn,25.86
2024-04-05T03:34:00,axn,26.26
2024-04-05T03:35:00,axn,26.39
2024-04-05T03:36:00,axn,26.23
2024-04-05T03:37:00,axn,26.41
2024-04-05T03:38:00,axn,26.50
2024-04-05T03:39:00,axn,26.40
2024-04-05T03:40:00,axn,26.57
2024-04-05T03:41:00,axn,26.53
2024-04-05T03:42:00,axn,26.28
2024-04-05T03:43:00,axn,26.39
2024-04-05T03:44:00,axn,26.52
2024-04-05T03:45:00,axn,26.16
2024-04-05T03:46:00,axn,26.13
2024-04-05T03:47:00,axn,26.26
2024-04-05T03:48:00,axn,26.47
2024-04-05T03:49:00,axn,26.67
2024-04-05T03:50:00,axn,26.52
2024-04-05T03:51:00,axn,26.33
2024-04-05T03:52:00,axn,26.60
2024-04-05T03:53:00,axn,26.22
2024-04-05T03:54:00,axn,26.37
2024-04-05T03:55:00,axn,26.31
2024-04-05T03:56:00,axn,26.28
2024-04-05T03:57:00,axn,26.21
2024-04-05T03:58:00,axn,26.11
2024-04-05T03:59:00,axn,26.23
2024-04-05T04:00:00,axn,26.14
2024-04-05T04:01:00,axn,26.10
2024-04-05T04:02:00,axn,25.97
2024-04-05T04:03:00,axn,26.02
2024-04-05T04:04:00,axn,26.03
2024-04-05T04:05:00,axn,26.23
2024-04-05T04:06:00,axn,25.67
2024-04-05T04:07:00,axn,31.05
2024-04-05T04:08:00,axn,26.37
2024-04-05T04:09:00,axn,25.73
2024-04-05T04:10:00,axn,25.68
2024-04-05T04:11:00,axn,25.86
2024-04-05T04:12:00,axn,26.03
2024-04-05T04:13:00,axn,25.73
2024-04-05T04:14:00,axn,25.73
2024-04-05T04:15:00,axn,25.65
2024-04-05T04:16:00,axn,25.56
2024-04-05T04:17:00,axn,25.40
2024-04-05T04:18:00,axn,25.90
2024-04-05T04:19:00,axn,25.59
2024-04-05T04:20:00,axn,25.66
2024-04-05T04:21:00,axn,25.46
2024-04-05T04:22:00,axn,25.56
2024-04-05T04:23:00,axn,25.30
2024-04-05T04:24:00,axn,25.37
2024-04-05T04:25:00,axn,25.50
2024-04-05T04:26:00,axn,25.20
2024-04-05T04:27:00,axn,25.21
2024-04-05T04:28:00,axn,25.03
2024-04-05T04:29:00,axn,25.20
2024-04-05T04:30:00,axn,25.82
2024-04-05T04:31:00,axn,25.09
2024-04-05T04:32:00,axn,25.16
2024-04-05T04:33:00,axn,25.26
2024-04-05T04:34:00,axn,25.23
2024-04-05T04:35:00,axn,25.35
2024-04-05T04:36:00,axn,25.39
2024-04-05T04:37:00,axn,25.46
2024-04-05T04:38:00,axn,25.86
2024-04-05T04:39:00,axn,25.48
2024-04-05T04:40:00,axn,25.55
2024-04-05T04:41:00,axn,25.95
2024-04-05T04:42:00,axn,25.55
2024-04-05T04:43:00,axn,25.20
2024-04-05T04:44:00,axn,25.53
2024-04-05T04:45:00,axn,25.54
2024-04-05T04:46:00,axn,25.56
2024-04-05T04:47:00,axn,26.05
2024-04-05T04:48:00,axn,25.79
2024-04-05T04:49:00,axn,27.03
2024-04-05T04:50:00,axn,27.15
2024-04-05T04:51:00,axn,27.17
2024-04-05T04:52:00,axn,27.32
2024-04-05T04:53:00,axn,37.90
2024-04-05T04:54:00,axn,37.68
2024-04-05T04:55:00,axn,37.50
2024-04-05T04:56:00,axn,37.30
2024-04-05T04:57:00,axn,27.36
2024-04-05T04:58:00,axn,27.15
2024-04-05T04:59:00,axn,43.22
2024-04-05T05:00:00,axn,27.41
2024-04-05T05:01:00,axn,25.21
2024-04-05T05:02:00,axn,32.56
2024-04-05T05:03:00,axn,32.93
2024-04-05T05:04:00,axn,29.52
2024-04-05T05:05:00,axn,29.59
2024-04-05T05:06:00,axn,29.74
2024-04-05T05:07:00,axn,29.39
2024-04-05T05:08:00,axn,29.37
2024-04-05T05:09:00,axn,29.42
2024-04-05T05:10:00,axn,29.52
2024-04-05T05:11:00,axn,30.04
2024-04-05T05:12:00,axn,25.22
2024-04-05T05:13:00,axn,24.89
2024-04-05T05:14:00,axn,25.22
2024-04-05T05:15:00,axn,25.17
2024-04-05T05:16:00,axn,25.47
2024-04-05T05:17:00,axn,25.63
2024-04-05T05:18:00,axn,25.49
2024-04-05T05:19:00,axn,26.44
2024-04-05T05:20:00,axn,26.50
2024-04-05T05:21:00,axn,26.34
2024-04-05T05:22:00,axn,26.25
2024-04-05T05:23:00,axn,26.18
2024-04-05T05:24:00,axn,28.20
2024-04-05T05:25:00,axn,28.02
2024-04-05T05:26:00,axn,28.20
2024-04-05T05:27:00,axn,28.13
2024-04-05T05:28:00,axn,28.09
2024-04-05T05:29:00,axn,33.19
2024-04-05T05:30:00,axn,32.38
2024-04-05T05:31:00,axn,29.34
2024-04-05T05:32:00,axn,29.06
2024-04-05T05:33:00,axn,29.12
2024-04-05T05:34:00,axn,29.18
2024-04-05T05:35:00,axn,31.38
2024-04-05T05:36:00,axn,29.00
2024-04-05T05:37:00,axn,28.95
2024-04-05T05:38:00,axn,29.48
2024-04-05T05:39:00,axn,28.87
2024-04-05T05:40:00,axn,28.95
2024-04-05T05:41:00,axn,29.01
2024-04-05T05:42:00,axn,29.48
2024-04-05T05:43:00,axn,29.30
2024-04-05T05:44:00,axn,29.09
2024-04-05T05:45:00,axn,29.22
2024-04-05T05:46:00,axn,29.01
2024-04-05T05:47:00,axn,29.78
2024-04-05T05:48:00,axn,29.18
2024-04-05T05:49:00,axn,29.39
2024-04-05T05:50:00,axn,28.78
2024-04-05T05:51:00,axn,28.68
2024-04-05T05:52:00,axn,28.71
2024-04-05T05:53:00,axn,28.77
2024-04-05T05:54:00,axn,28.70
2024-04-05T05:55:00,axn,28.54
2024-04-05T05:56:00,axn,28.55
2024-04-05T05:57:00,axn,32.95
2024-04-05T05:58:00,axn,33.45
2024-04-05T05:59:00,axn,28.61
2024-04-05T06:00:00,axn,28.49
2024-04-05T06:01:00,axn,28.14
2024-04-05T06:02:00,axn,27.87
2024-04-05T06:03:00,axn,27.92
2024-04-05T06:04:00,axn,27.94
2024-04-05T06:05:00,axn,27.99
2024-04-05T06:06:00,axn,27.88
2024-04-05T06:07:00,axn,27.80
2024-04-05T06:08:00,axn,27.97
2024-04-05T06:09:00,axn,27.84
2024-04-05T06:10:00,axn,27.79
2024-04-05T06:11:00,axn,27.77
2024-04-05T06:12:00,axn,27.68
2024-04-05T06:13:00,axn,27.87
2024-04-05T06:14:00,axn,27.47
2024-04-05T06:15:00,axn,27.31
2024-04-05T06:16:00,axn,27.44
2024-04-05T06:17:00,axn,27.32
2024-04-05T06:18:00,axn,27.17
2024-04-05T06:19:00,axn,43.13
2024-04-05T06:20:00,axn,42.34
2024-04-05T06:21:00,axn,42.48
2024-04-05T06:22:00,axn,42.50
2024-04-05T06:23:00,axn,42.17
2024-04-05T06:24:00,axn,42.00
2024-04-05T06:25:00,axn,28.10
2024-04-05T06:26:00,axn,27.99
2024-04-05T06:27:00,axn,28.23
2024-04-05T06:28:00,axn,32.16
2024-04-05T06:29:00,axn,28.24
2024-04-05T06:30:00,axn,28.34
2024-04-05T06:31:00,axn,28.39
2024-04-05T06:32:00,axn,28.13
2024-04-05T06:33:00,axn,28.12
2024-04-05T06:34:00,axn,28.09
2024-04-05T06:35:00,axn,28.53
2024-04-05T06:36:00,axn,28.22
2024-04-05T06:37:00,axn,28.62
2024-04-05T06:38:00,axn,28.73
2024-04-05T06:39:00,axn,28.62
2024-04-05T06:40:00,axn,28.55
2024-04-05T06:41:00,axn,28.33
2024-04-05T06:42:00,axn,28.28
2024-04-05T06:43:00,axn,28.20
2024-04-05T06:44:00,axn,28.01
2024-04-05T06:45:00,axn,28.22
2024-04-05T06:46:00,axn,28.68
2024-04-05T06:47:00,axn,28.52
2024-04-05T06:48:00,axn,28.15
2024-04-05T06:49:00,axn,27.94
2024-04-05T06:50:00,axn,28.07
2024-04-05T06:51:00,axn,28.52
2024-04-05T06:52:00,axn,28.21
2024-04-05T06:53:00,axn,28.46
2024-04-05T06:54:00,axn,28.23
2024-04-05T06:55:00,axn,27.95
2024-04-05T06:56:00,axn,28.01
2024-04-05T06:57:00,axn,27.97
2024-04-05T06:58:00,axn,28.34
2024-04-05T06:59:00,axn,29.00
2024-04-05T07:00:00,axn,32.93
2024-04-05T07:01:00,axn,32.62
2024-04-05T07:02:00,axn,35.39
2024-04-05T07:03:00,axn,32.92
2024-04-05T07:04:00,axn,35.54
2024-04-05T07:05:00,axn,33.63
2024-04-05T07:06:00,axn,33.03
2024-04-05T07:07:00,axn,33.57
2024-04-05T07:08:00,axn,33.67
2024-04-05T07:09:00,axn,33.74
2024-04-05T07:10:00,axn,33.48
2024-04-05T07:11:00,axn,33.71
2024-04-05T07:12:00,axn,33.58
2024-04-05T07:13:00,axn,33.94
2024-04-05T07:14:00,axn,34.37
2024-04-05T07:15:00,axn,33.61
2024-04-05T07:16:00,axn,33.84
2024-04-05T07:17:00,axn,33.96
2024-04-05T07:18:00,axn,33.61
2024-04-05T07:19:00,axn,33.73
2024-04-05T07:20:00,axn,33.60
2024-04-05T07:21:00,axn,33.31
2024-04-05T07:22:00,axn,33.15
2024-04-05T07:23:00,axn,32.98
2024-04-05T07:24:00,axn,33.41
2024-04-05T07:25:00,axn,33.15
2024-04-05T07:26:00,axn,32.84
2024-04-05T07:27:00,axn,32.91
2024-04-05T07:28:00,axn,33.45
2024-04-05T07:29:00,axn,32.90
2024-04-05T07:30:00,axn,32.87
2024-04-05T07:31:00,axn,32.99
2024-04-05T07:32:00,axn,37.30
2024-04-05T07:33:00,axn,32.80
2024-04-05T07:34:00,axn,32.80
2024-04-05T07:35:00,axn,32.77
2024-04-05T07:36:00,axn,33.02
2024-04-05T07:37:00,axn,32.82
2024-04-05T07:38:00,axn,32.49
2024-04-05T07:39:00,axn,32.89
2024-04-05T07:40:00,axn,48.82
2024-04-05T07:41:00,axn,33.81
2024-04-05T07:42:00,axn,33.53
2024-04-05T07:43:00,axn,33.06
2024-04-05T07:44:00,axn,34.23
2024-04-05T07:45:00,axn,33.75
2024-04-05T07:46:00,axn,33.37
2024-04-05T07:47:00,axn,34.08
2024-04-05T07:48:00,axn,33.11
2024-04-05T07:49:00,axn,32.66
2024-04-05T07:50:00,axn,33.08
2024-04-05T07:51:00,axn,33.52
2024-04-05T07:52:00,axn,33.25
2024-04-05T07:53:00,axn,33.19
2024-04-05T07:54:00,axn,33.25
2024-04-05T07:55:00,axn,32.73
2024-04-05T07:56:00,axn,32.79
2024-04-05T07:57:00,axn,32.75
2024-04-05T07:58:00,axn,32.85
2024-04-05T07:59:00,axn,32.67
2024-04-05T08:00:00,axn,32.65
2024-04-05T08:01:00,axn,33.82
2024-04-05T08:02:00,axn,38.21
2024-04-05T08:03:00,axn,38.12
2024-04-05T08:04:00,axn,42.37
2024-04-05T08:05:00,axn,38.54
2024-04-05T08:06:00,axn,38.04
2024-04-05T08:07:00,axn,38.40
2024-04-05T08:08:00,axn,38.12
2024-04-05T08:09:00,axn,38.01
2024-04-05T08:10:00,axn,37.84
2024-04-05T08:11:00,axn,43.92
2024-04-05T08:12:00,axn,37.93
2024-04-05T08:13:00,axn,38.15
2024-04-05T08:14:00,axn,38.51
2024-04-05T08:15:00,axn,38.34
2024-04-05T08:16:00,axn,38.67
2024-04-05T08:17:00,axn,38.46
2024-04-05T08:18:00,axn,39.14
2024-04-05T08:19:00,axn,38.39
2024-04-05T08:20:00,axn,38.08
2024-04-05T08:21:00,axn,38.38
2024-04-05T08:22:00,axn,38.14
2024-04-05T08:23:00,axn,38.58
2024-04-05T08:24:00,axn,37.93
2024-04-05T08:25:00,axn,38.30
2024-04-05T08:26:00,axn,38.61
2024-04-05T08:27:00,axn,38.38
2024-04-05T08:28:00,axn,39.33
2024-04-05T08:29:00,axn,38.39
2024-04-05T08:30:00,axn,38.33
2024-04-05T08:31:00,axn,37.93
2024-04-05T08:32:00,axn,44.16
2024-04-05T08:33:00,axn,44.96
2024-04-05T08:34:00,axn,44.15
2024-04-05T08:35:00,axn,43.57
2024-04-05T08:36:00,axn,43.01
2024-04-05T08:37:00,axn,39.21
2024-04-05T08:38:00,axn,38.45
2024-04-05T08:39:00,axn,38.79
2024-04-05T08:40:00,axn,38.77
2024-04-05T08:41:00,axn,38.58
2024-04-05T08:42:00,axn,38.20
2024-04-05T08:43:00,axn,38.50
2024-04-05T08:44:00,axn,38.70
2024-04-05T08:45:00,axn,38.36
2024-04-05T08:46:00,axn,39.20
2024-04-05T08:47:00,axn,39.47
2024-04-05T08:48:00,axn,39.00
2024-04-05T08:49:00,axn,38.97
2024-04-05T08:50:00,axn,38.88
2024-04-05T08:51:00,axn,38.61
2024-04-05T08:52:00,axn,38.58
2024-04-05T08:53:00,axn,38.69
2024-04-05T08:54:00,axn,38.81
2024-04-05T08:55:00,axn,39.33
2024-04-05T08:56:00,axn,39.38
2024-04-05T08:57:00,axn,38.65
2024-04-05T08:58:00,axn,38.74
2024-04-05T08:59:00,axn,39.35
2024-04-05T09:00:00,axn,38.79
2024-04-05T09:01:00,axn,38.65
2024-04-05T09:02:00,axn,39.14
2024-04-05T09:03:00,axn,39.02
2024-04-05T09:04:00,axn,38.99
2024-04-05T09:05:00,axn,43.55
2024-04-05T09:06:00,axn,43.07
2024-04-05T09:07:00,axn,38.87
2024-04-05T09:08:00,axn,38.80
2024-04-05T09:09:00,axn,38.90
2024-04-05T09:10:00,axn,43.87
2024-04-05T09:11:00,axn,37.91
2024-04-05T09:12:00,axn,38.39
2024-04-05T09:13:00,axn,42.44
2024-04-05T09:14:00,axn,39.76
2024-04-05T09:15:00,axn,38.56
2024-04-05T09:16:00,axn,39.95
2024-04-05T09:17:00,axn,39.40
2024-04-05T09:18:00,axn,39.20
2024-04-05T09:19:00,axn,39.90
2024-04-05T09:20:00,axn,39.16
2024-04-05T09:21:00,axn,39.19
2024-04-05T09:22:00,axn,39.11
2024-04-05T09:23:00,axn,40.04
2024-04-05T09:24:00,axn,40.33
2024-04-05T09:25:00,axn,42.41
2024-04-05T09:26:00,axn,42.83
2024-04-05T09:27:00,axn,56.27
2024-04-05T09:28:00,axn,39.74
2024-04-05T09:29:00,axn,39.56
2024-04-05T09:30:00,axn,40.56
2024-04-05T09:31:00,axn,40.55
2024-04-05T09:32:00,axn,40.28
2024-04-05T09:33:00,axn,40.02
2024-04-05T09:34:00,axn,40.59
2024-04-05T09:35:00,axn,40.60
2024-04-05T09:36:00,axn,45.50
2024-04-05T09:37:00,axn,45.58
2024-04-05T09:38:00,axn,41.20
2024-04-05T09:39:00,axn,40.88
2024-04-05T09:40:00,axn,41.28
2024-04-05T09:41:00,axn,41.42
2024-04-05T09:42:00,axn,41.47
2024-04-05T09:43:00,axn,41.53
2024-04-05T09:44:00,axn,42.12
2024-04-05T09:45:00,axn,42.15
2024-04-05T09:46:00,axn,42.52
2024-04-05T09:47:00,axn,42.50
2024-04-05T09:48:00,axn,43.55
2024-04-05T09:49:00,axn,42.73
2024-04-05T09:50:00,axn,43.08
2024-04-05T09:51:00,axn,43.12
2024-04-05T09:52:00,axn,43.28
2024-04-05T09:53:00,axn,43.33
2024-04-05T09:54:00,axn,43.43
2024-04-05T09:55:00,axn,43.64
2024-04-05T09:56:00,axn,43.48
2024-04-05T09:57:00,axn,44.03
2024-04-05T09:58:00,axn,43.55
2024-04-05T09:59:00,axn,59.41
2024-04-05T10:00:00,axn,52.81
2024-04-05T10:01:00,axn,54.12
2024-04-05T10:02:00,axn,53.17
2024-04-05T10:03:00,axn,53.41
2024-04-05T10:04:00,axn,43.37
2024-04-05T10:05:00,axn,43.51
2024-04-05T10:06:00,axn,43.47
2024-04-05T10:07:00,axn,43.46
2024-04-05T10:08:00,axn,48.09
2024-04-05T10:09:00,axn,48.08
2024-04-05T10:10:00,axn,44.09
2024-04-05T10:11:00,axn,43.54
2024-04-05T10:12:00,axn,43.75
2024-04-05T10:13:00,axn,43.77
2024-04-05T10:14:00,axn,44.22
2024-04-05T10:15:00,axn,44.30
2024-04-05T10:16:00,axn,44.20
2024-04-05T10:17:00,axn,44.66
2024-04-05T10:18:00,axn,43.78
2024-04-05T10:19:00,axn,44.85
2024-04-05T10:20:00,axn,43.29
2024-04-05T10:21:00,axn,43.50
2024-04-05T10:22:00,axn,43.48
2024-04-05T10:23:00,axn,44.13
2024-04-05T10:24:00,axn,43.31
2024-04-05T10:25:00,axn,43.65
2024-04-05T10:26:00,axn,43.39
2024-04-05T10:27:00,axn,42.97
2024-04-05T10:28:00,axn,43.29
2024-04-05T10:29:00,axn,43.27
2024-04-05T10:30:00,axn,43.60
2024-04-05T10:31:00,axn,43.91
2024-04-05T10:32:00,axn,43.91
2024-04-05T10:33:00,axn,43.89
2024-04-05T10:34:00,axn,43.73
2024-04-05T10:35:00,axn,48.23
2024-04-05T10:36:00,axn,44.59
2024-04-05T10:37:00,axn,43.90
2024-04-05T10:38:00,axn,43.70
2024-04-05T10:39:00,axn,43.53
2024-04-05T10:40:00,axn,44.08
2024-04-05T10:41:00,axn,43.32
2024-04-05T10:42:00,axn,43.37
2024-04-05T10:43:00,axn,42.94
2024-04-05T10:44:00,axn,43.37
2024-04-05T10:45:00,axn,43.63
2024-04-05T10:46:00,axn,43.59
2024-04-05T10:47:00,axn,43.52
2024-04-05T10:48:00,axn,43.58
2024-04-05T10:49:00,axn,43.70
2024-04-05T10:50:00,axn,43.13
2024-04-05T10:51:00,axn,43.70
2024-04-05T10:52:00,axn,43.72
2024-04-05T10:53:00,axn,43.63
2024-04-05T10:54:00,axn,43.15
2024-04-05T10:55:00,axn,44.28
2024-04-05T10:56:00,axn,43.19
2024-04-05T10:57:00,axn,43.21
2024-04-05T10:58:00,axn,42.35
2024-04-05T10:59:00,axn,46.96
2024-04-05T11:00:00,axn,46.72
2024-04-05T11:01:00,axn,57.14
2024-04-05T11:02:00,axn,56.41
2024-04-05T11:03:00,axn,56.57
2024-04-05T11:04:00,axn,56.43
2024-04-05T11:05:00,axn,56.06
2024-04-05T11:06:00,axn,55.82
2024-04-05T11:07:00,axn,42.05
2024-04-05T11:08:00,axn,41.95
2024-04-05T11:09:00,axn,42.44
2024-04-05T11:10:00,axn,42.46
2024-04-05T11:11:00,axn,41.95
2024-04-05T11:12:00,axn,43.22
2024-04-05T11:13:00,axn,42.79
2024-04-05T11:14:00,axn,42.59
2024-04-05T11:15:00,axn,42.72
2024-04-05T11:16:00,axn,43.17
2024-04-05T11:17:00,axn,42.29
2024-04-05T11:18:00,axn,42.28
2024-04-05T11:19:00,axn,42.00
2024-04-05T11:20:00,axn,42.30
2024-04-05T11:21:00,axn,46.59
2024-04-05T11:22:00,axn,46.86
2024-04-05T11:23:00,axn,42.24
2024-04-05T11:24:00,axn,42.60
2024-04-05T11:25:00,axn,42.82
2024-04-05T11:26:00,axn,42.33
2024-04-05T11:27:00,axn,42.30
2024-04-05T11:28:00,axn,42.46
2024-04-05T11:29:00,axn,42.39
2024-04-05T11:30:00,axn,41.96
2024-04-05T11:31:00,axn,42.28
2024-04-05T11:32:00,axn,42.43
2024-04-05T11:33:00,axn,42.01
2024-04-05T11:34:00,axn,41.91
2024-04-05T11:35:00,axn,41.93
2024-04-05T11:36:00,axn,42.08
2024-04-05T11:37:00,axn,42.20
2024-04-05T11:38:00,axn,42.07
2024-04-05T11:39:00,axn,42.01
2024-04-05T11:40:00,axn,42.26
2024-04-05T11:41:00,axn,42.37
2024-04-05T11:42:00,axn,41.89
2024-04-05T11:43:00,axn,41.81
2024-04-05T11:44:00,axn,42.25
2024-04-05T11:45:00,axn,42.12
2024-04-05T11:46:00,axn,46.82
2024-04-05T11:47:00,axn,47.75
2024-04-05T11:48:00,axn,43.51
2024-04-05T11:49:00,axn,42.55
2024-04-05T11:50:00,axn,42.98
2024-04-05T11:51:00,axn,42.33
2024-04-05T11:52:00,axn,42.09
2024-04-05T11:53:00,axn,42.51
2024-04-05T11:54:00,axn,42.42
2024-04-05T11:55:00,axn,59.67
2024-04-05T11:56:00,axn,42.50
2024-04-05T11:57:00,axn,45.45
2024-04-05T11:58:00,axn,45.33
2024-04-05T11:59:00,axn,42.19
2024-04-05T12:00:00,axn,42.84
2024-04-05T12:01:00,axn,43.22
2024-04-05T12:02:00,axn,43.21
2024-04-05T12:03:00,axn,43.31
2024-04-05T12:04:00,axn,43.75
2024-04-05T12:05:00,axn,43.20
2024-04-05T12:06:00,axn,48.21
2024-04-05T12:07:00,axn,47.63
2024-04-05T12:08:00,axn,43.71
2024-04-05T12:09:00,axn,42.51
2024-04-05T12:10:00,axn,64.95
2024-04-05T12:11:00,axn,43.04
2024-04-05T12:12:00,axn,42.57
2024-04-05T12:13:00,axn,47.30
2024-04-05T12:14:00,axn,47.34
2024-04-05T12:15:00,axn,42.96
2024-04-05T12:16:00,axn,42.02
2024-04-05T12:17:00,axn,42.03
2024-04-05T12:18:00,axn,42.13
2024-04-05T12:19:00,axn,42.49
2024-04-05T12:20:00,axn,42.06
2024-04-05T12:21:00,axn,41.70
2024-04-05T12:22:00,axn,42.16
2024-04-05T12:23:00,axn,42.21
2024-04-05T12:24:00,axn,41.94
2024-04-05T12:25:00,axn,42.04
2024-04-05T12:26:00,axn,42.02
2024-04-05T12:27:00,axn,42.67
2024-04-05T12:28:00,axn,41.85
2024-04-05T12:29:00,axn,42.24
2024-04-05T12:30:00,axn,42.44
2024-04-05T12:31:00,axn,42.58
2024-04-05T12:32:00,axn,42.08
2024-04-05T12:33:00,axn,46.94
2024-04-05T12:34:00,axn,41.95
2024-04-05T12:35:00,axn,42.64
2024-04-05T12:36:00,axn,42.40
2024-04-05T12:37:00,axn,42.43
2024-04-05T12:38:00,axn,42.72
2024-04-05T12:39:00,axn,41.99
2024-04-05T12:40:00,axn,42.29
2024-04-05T12:41:00,axn,42.53
2024-04-05T12:42:00,axn,42.58
2024-04-05T12:43:00,axn,42.12
2024-04-05T12:44:00,axn,41.87
2024-04-05T12:45:00,axn,41.62
2024-04-05T12:46:00,axn,42.13
2024-04-05T12:47:00,axn,41.72
2024-04-05T12:48:00,axn,41.53
2024-04-05T12:49:00,axn,41.80
2024-04-05T12:50:00,axn,41.89
2024-04-05T12:51:00,axn,42.14
2024-04-05T12:52:00,axn,41.41
2024-04-05T12:53:00,axn,41.52
2024-04-05T12:54:00,axn,41.77
2024-04-05T12:55:00,axn,56.89
2024-04-05T12:56:00,axn,42.34
2024-04-05T12:57:00,axn,42.16
2024-04-05T12:58:00,axn,42.43
2024-04-05T12:59:00,axn,41.78
2024-04-05T13:00:00,axn,44.27
2024-04-05T13:01:00,axn,47.26
2024-04-05T13:02:00,axn,41.26
2024-04-05T13:03:00,axn,41.54
2024-04-05T13:04:00,axn,41.79
2024-04-05T13:05:00,axn,42.46
2024-04-05T13:06:00,axn,42.32
2024-04-05T13:07:00,axn,42.13
2024-04-05T13:08:00,axn,42.32
2024-04-05T13:09:00,axn,42.43
2024-04-05T13:10:00,axn,42.36
2024-04-05T13:11:00,axn,42.50
2024-04-05T13:12:00,axn,43.46
2024-04-05T13:13:00,axn,44.11
2024-04-05T13:14:00,axn,43.03
2024-04-05T13:15:00,axn,43.41
2024-04-05T13:16:00,axn,42.83
2024-04-05T13:17:00,axn,42.88
2024-04-05T13:18:00,axn,43.24